EW8784 Weather Reports


time (UTC)temp
C
wind
direction
speed
KPH
gust
KPH
rain 1hr
cm
rain 24hr
cm
rain mn
cm
humidity
%
barometer
mb
20240616044503 27 359 4.8 16.1 0.00 0.00 0.00 57 1000.8
20240616043006 27 359 6.4 19.3 0.00 0.00 0.00 63 1001.0
20240616040007 26 207 8.0 20.9 0.00 0.00 0.00 71 1001.5
20240616034504 26 359 9.7 17.7 0.00 0.00 0.00 65 1001.3
20240616033007 26 158 6.4 17.7 0.00 0.00 0.00 66 1001.3
20240616031504 26 288 8.0 14.5 0.00 0.00 0.00 69 1001.4
20240616030008 26 96 6.4 12.9 0.00 0.00 0.00 71 1001.5
20240616023003 26 225 6.4 14.5 0.00 0.00 0.00 74 1001.6
20240616021507 26 290 4.8 8.0 0.00 0.00 0.00 76 1001.5
20240616020005 25 226 4.8 14.5 0.00 0.00 0.00 83 1001.5
20240616014503 25 218 6.4 16.1 0.00 0.00 0.00 83 1001.7
20240616013006 25 359 6.4 16.1 0.00 0.00 0.00 87 1001.6
20240616010002 24 153 6.4 11.3 0.00 0.00 0.00 95 1001.8
20240616004506 24 221 4.8 14.5 0.00 0.00 0.00 98 1001.9
20240616003007 23 359 6.4 14.5 0.00 0.00 0.00 100 1001.8
20240616001505 23 52 0.0 1.6 0.00 0.00 0.00 100 1002.0
20240616000003 22 276 1.6 1.6 0.00 0.00 0.00 100 1002.2
20240615234507 22 277 0.0 0.0 0.00 0.00 0.00 100 1002.4
20240615233004 22 336 1.6 3.2 0.00 0.00 0.00 100 1002.2
20240615231503 22 312 1.6 3.2 0.00 0.00 0.00 100 1002.3
20240615230006 21 354 3.2 4.8 0.00 0.00 0.00 100 1002.1
20240615224504 21 330 3.2 6.4 0.00 0.00 0.00 100 1002.3
20240615223002 21 350 4.8 8.0 0.00 0.00 0.00 1 1002.4
20240615221506 20 46 4.8 8.0 0.00 0.00 0.00 1 1002.6
20240615220003 20 15 6.4 9.7 0.00 0.00 0.00 1 1002.6
20240615214501 20 14 4.8 8.0 0.00 0.00 0.00 1 1002.5
20240615213005 20 340 1.6 3.2 0.00 0.00 0.00 1 1002.4
20240615211503 19 350 3.2 6.4 0.00 0.00 0.00 100 1002.3
20240615210006 19 18 4.8 6.4 0.00 0.00 0.00 100 1002.2
20240615204505 19 23 6.4 12.9 0.00 0.00 0.00 100 1002.3
20240615203041 19 31 4.8 9.7 0.00 0.00 0.00 100 1002.1
20240615200002 19 356 4.8 9.7 0.00 0.00 0.00 100 1001.8
20240615193002 19 17 6.4 14.5 0.00 0.00 0.00 100 1002.0
20240615191506 19 89 4.8 11.3 0.00 0.00 0.00 100 1001.9
20240615190004 19 24 4.8 8.0 0.00 0.00 0.00 100 1002.0
20240615184507 19 13 4.8 11.3 0.00 0.00 0.00 100 1001.5
20240615181502 20 345 8.0 14.5 0.00 0.00 0.00 100 1001.3
20240615180005 20 15 4.8 8.0 0.00 0.00 0.00 100 1001.3
20240615174503 20 345 8.0 17.7 0.00 0.00 0.00 100 1001.1
20240615173007 20 11 4.8 8.0 0.00 0.00 0.00 100 1001.1
20240615171505 20 25 8.0 12.9 0.00 0.00 0.00 100 1001.4
20240615170001 20 325 9.7 12.9 0.00 0.00 0.00 100 1001.8
20240615164505 20 326 8.0 11.3 0.00 0.00 0.00 100 1001.8
20240615163003 21 25 4.8 9.7 0.00 0.00 0.00 100 1001.6
20240615161506 21 349 6.4 14.5 0.00 0.00 0.00 100 1001.9
20240615160003 21 318 4.8 8.0 0.00 0.00 0.00 100 1001.9
20240615154508 21 318 3.2 6.4 0.00 0.00 0.00 100 1002.0
20240615144507 21 307 3.2 3.2 0.00 0.00 0.00 100 1003.4
20240615143004 21 35 1.6 3.2 0.00 0.00 0.00 100 1003.5
20240615141508 22 45 1.6 1.6 0.00 0.00 0.00 100 1003.6
20240615140005 22 55 0.0 1.6 0.00 0.00 0.00 100 1003.7
20240615134503 22 44 1.6 3.2 0.00 0.00 0.00 100 1003.9
20240615133007 22 21 0.0 0.0 0.00 0.00 0.00 100 1003.9
20240615131505 22 24 1.6 3.2 0.00 0.00 0.00 100 1004.1
20240615130008 23 314 0.0 0.0 0.00 0.00 0.00 100 1004.4
20240615123002 23 304 0.0 0.0 0.00 0.00 0.00 100 1004.4
20240615121504 23 304 0.0 0.0 0.00 0.00 0.00 100 1004.4
20240615120008 23 280 0.0 0.0 0.00 0.00 0.00 100 1004.5
20240615114505 23 280 0.0 1.6 0.00 0.00 0.00 100 1004.5
20240615113003 23 278 0.0 0.0 0.00 0.00 0.00 100 1004.7
20240615111506 23 298 0.0 0.0 0.00 0.00 0.00 100 1004.5
20240615110004 23 298 0.0 0.0 0.00 0.00 0.00 100 1004.6
20240615104502 23 298 0.0 0.0 0.00 0.00 0.00 98 1004.5
20240615103006 23 297 0.0 0.0 0.00 0.00 0.00 98 1004.8
20240615101503 23 359 0.0 0.0 0.00 0.00 0.00 98 1004.6
20240615100007 23 233 3.2 14.5 0.00 0.00 0.00 98 1004.7
20240615094505 23 225 4.8 9.7 0.00 0.00 0.00 99 1004.7
20240615093002 23 117 3.2 8.0 0.00 0.00 0.00 99 1004.9
20240615091506 23 273 6.4 12.9 0.00 0.00 0.00 97 1004.7
20240615090004 24 356 4.8 11.3 0.00 0.00 0.00 96 1004.5
20240615084508 24 158 6.4 12.9 0.00 0.00 0.00 87 1004.5
20240615081507 25 359 6.4 14.5 0.00 0.00 0.00 76 1004.0
20240615080005 25 295 1.6 3.2 0.00 0.00 0.00 70 1004.0
20240615074508 25 359 4.8 11.3 0.00 0.00 0.00 67 1003.9
20240615073006 25 298 4.8 8.0 0.00 0.00 0.00 64 1003.9
20240615071503 25 359 6.4 12.9 0.00 0.00 0.00 62 1003.9
20240615070006 25 173 3.2 14.5 0.00 0.00 0.00 62 1004.1
20240615064504 26 359 3.2 8.0 0.00 0.00 0.00 61 1004.4
20240615063008 26 359 4.8 14.5 0.00 0.00 0.00 59 1004.6
20240615061505 26 359 0.0 0.0 0.00 0.00 0.00 59 1004.8
20240615060003 26 222 3.2 14.5 0.00 0.00 0.00 58 1004.9
20240615054507 27 293 4.8 8.0 0.00 0.00 0.00 58 1005.1
20240615051505 27 118 4.8 12.9 0.00 0.00 0.00 54 1005.1